Epoch 2008 Oct. 21.0 TT = JDT 2454760.5 T 2008 Nov. 4.80576 TT MPC q 2.2451333 (2000.0) P Q z +0.0125361 Peri. 297.35604 -0.40571390 -0.66428386 +/-0.0000413 Node 219.06524 +0.14155524 -0.72424230 e 0.9718549 Incl. 84.98490 -0.90297195 +0.18493255
m1 = 10.2 + 5 logΔ + 10.0 log r